PDT,Max TemperatureF,Mean TemperatureF,Min TemperatureF,Max Dew PointF,MeanDew PointF,Min DewpointF,Max Humidity, Mean Humidity, Min Humidity, Max Sea Level PressureIn, Mean Sea Level PressureIn, Min Sea Level PressureIn, Max VisibilityMiles, Mean VisibilityMiles, Min VisibilityMiles, Max Wind SpeedMPH, Mean Wind SpeedMPH, Max Gust SpeedMPH,PrecipitationIn, CloudCover, Events, WindDirDegrees
2013-5-1,80,57,33,31,27,20,82,46,10,30.41,30.33,30.25,10,10,10,16,4,21,0.00,0,,14
2013-5-2,87,64,41,36,28,21,53,32,10,30.34,30.24,30.12,10,10,10,12,3,16,0.00,0,,318
2013-5-3,87,66,45,43,38,34,71,43,15,30.23,30.11,29.97,10,10,10,18,2,22,0.00,0,,332
2013-5-4,85,64,43,43,35,25,77,45,12,30.05,29.87,29.71,10,10,10,24,7,33,0.00,1,,63
2013-5-5,86,66,45,47,40,35,66,41,16,29.76,29.68,29.58,10,10,10,20,5,28,T,2,Rain-Thunderstorm,212
2013-5-6,78,64,50,58,49,45,90,62,33,29.92,29.84,29.76,10,10,10,24,4,28,0.13,5,Rain,256
2013-5-7,72,64,56,54,52,50,86,68,49,30.00,29.95,29.92,10,10,10,12,3,14,T,7,,315
2013-5-8,78,66,53,55,51,47,93,63,33,30.10,30.04,29.98,10,10,3,28,4,36,0.02,2,Rain,146
2013-5-9,87,69,50,53,50,43,96,59,21,30.17,30.10,30.01,10,10,10,12,3,14,0.00,0,,7
2013-5-10,91,74,56,56,52,48,80,52,24,30.19,30.13,30.04,10,10,10,15,4,21,0.00,1,,333
2013-5-11,91,76,60,57,52,40,84,54,24,30.17,30.07,29.97,10,10,10,13,4,16,0.00,1,,315
2013-5-12,87,71,54,50,45,35,77,47,17,30.12,30.06,29.99,10,10,10,21,5,30,0.00,0,,316
2013-5-13,76,63,50,48,43,36,71,48,25,30.14,30.08,30.04,10,10,10,20,6,25,0.00,2,,312
2013-5-14,77,61,45,44,41,31,86,53,19,30.16,30.09,29.99,10,10,10,14,4,18,0.00,1,,325
2013-5-15,70,59,48,48,44,39,77,57,37,30.07,30.04,30.01,10,10,10,20,5,24,T,4,,344
2013-5-16,66,60,53,51,45,39,83,62,40,30.01,29.96,29.92,10,10,8,20,7,25,0.06,7,Rain,313
2013-5-17,67,59,51,43,40,34,71,51,31,30.09,30.02,29.99,10,10,10,15,6,20,T,7,Rain,321
2013-5-18,68,60,51,46,43,41,71,57,42,30.30,30.18,30.11,10,10,10,18,5,23,0.01,7,Rain,340
2013-5-19,74,61,47,45,41,38,77,53,29,30.38,30.29,30.20,10,10,10,13,4,18,0.00,3,,334
2013-5-20,84,65,46,47,41,27,86,50,13,30.26,30.09,29.91,10,10,10,13,3,20,0.00,0,,326
2013-5-21,64,52,40,45,37,30,79,56,33,30.12,29.96,29.84,10,10,2,25,8,33,0.05,6,Rain,276
2013-5-22,56,47,38,41,36,30,85,63,41,30.12,30.07,30.02,10,10,7,17,5,22,0.09,7,Rain,302
2013-5-23,64,53,42,43,38,31,96,63,30,30.08,30.04,30.00,10,10,9,18,5,24,0.02,7,Rain,332
2013-5-24,64,55,45,38,36,34,66,50,34,30.10,30.06,30.03,10,10,10,14,5,18,T,5,,299
2013-5-25,73,56,39,46,37,33,85,54,23,30.09,30.01,29.91,10,10,10,18,4,23,T,3,Rain,315
2013-5-26,69,61,52,50,44,38,96,64,32,30.06,30.02,29.99,10,10,5,20,5,25,0.07,5,Rain,327
2013-5-27,63,57,51,56,51,43,89,75,61,30.02,29.91,29.85,10,10,6,10,4,14,0.23,8,Rain,355
2013-5-28,74,63,52,51,47,38,96,63,29,29.97,29.90,29.79,10,10,10,17,5,23,T,6,Rain,325
2013-5-29,71,61,50,50,43,36,89,60,31,30.07,29.91,29.80,10,10,10,22,8,30,0.01,6,,310
2013-5-30,72,61,49,42,38,33,80,53,25,30.21,30.11,30.07,10,10,10,17,5,25,0.00,4,,339
2013-5-31,82,62,42,44,36,19,89,50,11,30.28,30.20,30.11,10,10,10,13,3,14,0.00,0,,340